Regional Weather Roundup
Issued by NWS Charleston, SC

Current Version | Previous Version | Text Only | Print | Product List | Glossary Off
Versions: 1 2 3 4 5 6 7 8 9 10 11 12 13 14 15 16 17 18 19 20 21 22 23 24 25 26 27 28 29 30 31 32 33 34 35 36 37 38 39 40 41 42 43 44 45 46 47 48 49 50

000
ASUS42 KCHS 301226
RWRCHS

REGIONAL WEATHER ROUNDUP
NATIONAL WEATHER SERVICE CHARLESTON SC
800 AM EDT THU JUL 30 2015

NOTE: "FAIR" INDICATES FEW OR NO CLOUDS BELOW 12,000 FEET WITH NO
SIGNIFICANT WEATHER AND/OR OBSTRUCTIONS TO VISIBILITY.

NOT ALL STATIONS ARE QUALITY CONTROLLED BY THE NATIONAL
WEATHER SERVICE. USE DATA WITH CAUTION...ESPECIALLY
DEWPOINT OBSERVATIONS.

SCZ027-030-031-034>040-042>050-301300-
...SOUTHEAST SOUTH CAROLINA...

CITY           SKY/WX    TMP DP  RH WIND       PRES   REMARKS
N CHARLESTON   MOSUNNY   79  75  87 N5        29.95R
6HR MIN TEMP:  75; 6HR MAX TEMP:  79;

WATERFRONT PRK   N/A     79  77  94 VRB2      29.91R
MOUNT PLEASANT FAIR      79  77  94 N3        29.95R
JOHNS ISLAND   FAIR      81  77  89 N5        29.95R
PINOPOLIS      NOT AVBL
MONCKS CORNER  FAIR      79  73  83 CALM      29.95S
SUMMERVILLE    FAIR      77  77 100 CALM      29.97R
BEAUFORT MCAS  MOSUNNY   80  76  87 N5        29.95R
6HR MIN TEMP:  77; 6HR MAX TEMP:  80;

BEAUFORT ARPT  FAIR      81  77  89 CALM      29.95R
HILTON HEAD IS SUNNY     81  75  83 CALM      29.95R
WALTERBORO     SUNNY     81  75  83 CALM      29.97R
ALLENDALE      FAIR      79  75  89 CALM      29.95R

...SOUTHERN MIDLANDS AND PEE DEE...

CITY           SKY/WX    TMP DP  RH WIND       PRES   REMARKS
GEORGETOWN     NOT AVBL
KINGSTREE      NOT AVBL
ORANGEBURG     SUNNY     78  75  90 CALM      29.96R
6HR MIN TEMP:  74; 6HR MAX TEMP:  79;

BARNWELL       FAIR      81  75  83 CALM      29.97R
AIKEN          FAIR      77  72  83 CALM      30.01R
MANNING        FAIR      77  66  69 CALM      29.97R
COLUMBIA       MOSUNNY   80  72  76 W3        29.96R
6HR MIN TEMP:  77; 6HR MAX TEMP:  82;

SUMTER         SUNNY     77  71  82 CALM      29.95R
6HR MIN TEMP:  73; 6HR MAX TEMP:  79;

FLORENCE       SUNNY     78  72  81 CALM      29.96R
6HR MIN TEMP:  73; 6HR MAX TEMP:  78;

MYRTLE BEACH   SUNNY     77  72  83 N9        29.96R
N MYRTLE BEACH SUNNY     75  73  93 N5        29.95R
6HR MIN TEMP:  72; 6HR MAX TEMP:  75;


$$

GAZ063-065-086>088-099>101-113>116-118-119-134>141-150-301300-
...SOUTHEAST GEORGIA...

CITY           SKY/WX    TMP DP  RH WIND       PRES   REMARKS
SAVANNAH ARPT  MOSUNNY   79  73  82 CALM      29.95R
6HR MIN TEMP:  75; 6HR MAX TEMP:  79;

HUNTER AAF     SUNNY     80  75  83 N7        29.92R
6HR MIN TEMP:  76; 6HR MAX TEMP:  80;

FORT STEWART   MOSUNNY   76  73  90 N1        29.92R
6HR MIN TEMP:  73; 6HR MAX TEMP:  77;

STATESBORO     SUNNY     76  76 100 CALM      29.95S
SYLVANIA       SUNNY     80  76  88 CALM      29.96R
CLAXTON        FAIR      75  72  88 CALM      29.95R

...CSRA...CENTRAL AND FAR SOUTHEAST GEORGIA...

CITY           SKY/WX    TMP DP  RH WIND       PRES   REMARKS
THOMSON        SUNNY     77  77 100 NW6       30.01R
AUGUSTA-BUSH   SUNNY     77  76  96 SE3       29.95R
6HR MIN TEMP:  75; 6HR MAX TEMP:  78; 6HR PCP:  0.11;

AUGUSTA-DANIEL SUNNY     79  71  76 CALM      29.97R
SWAINSBORO     FAIR     N/A N/A N/A CALM      29.98R
VIDALIA        HVY RAIN  77  73  88 CALM      29.96R
EASTMAN        FAIR      78  78 100 CALM      29.99R
HAZLEHURST     CLOUDY    77  77 100 CALM      29.96R FOG
ALMA           CLOUDY    75  75 100 CALM      29.96R FOG
6HR MIN TEMP:  74; 6HR MAX TEMP:  75;

WAYCROSS       CLOUDY    78  78 100 CALM      29.96R FOG
JESUP          FAIR      81  77  89 CALM      29.95S
BAXLEY         FAIR      77  75  94 CALM      29.96R
BRUNSWICK      SUNNY     75  73  94 CALM      29.96R
SAINT SIMONS   SUNNY     79  75  87 CALM      29.94R
6HR MIN TEMP:  75; 6HR MAX TEMP:  79;


$$

SCZ027-028-034-036>038-045-046-048>050-GAZ119-141-301300-
...LAKE AND SUPPLEMENTAL COASTAL OBSERVATIONS...

STATION/POSITION TIME  TEMP    WIND        PRES    WAVE   SWELL
                       AIR SEA DIR/SP/G            HT/PER HT/PER/DIR
                 (UTC) (F)     (DEG/KT/KT) (MB)    (FT/S) (FT/S/D)
UPR LAKE MARION  NOT AVBL
WINYAH BAY       1145   75     350/  4     1013.0R
LAKE MURRAY      1100   79     230/  4/  5 1013.5R
ACE BASIN NERRS  NOT AVBL
FORT PULASKI     1100   79                   N/A
SAPELO ISLAND    1200   80      30/  4     1014.0R

$$

ANZ835-935-AMZ111-154-330-350-352-354-370-450-454-472-301300-
...C-MAN AND BUOY OBSERVATIONS...

STATION/POSITION TIME  TEMP    WIND        PRES    WAVE   SWELL
                       AIR SEA DIR/SP/G            HT/PER HT/PER/DIR
                 (UTC) (F)     (DEG/KT/KT) (MB)    (FT/S) (FT/S/D)
BUOY 41004       1150   82 84   10/ 10/ 14 1012.9R   4/ 8   3/ 8
BUOY 41008       1150   82 82   20/  8/ 10 1013.7R   2/ 8   2/110/ 8
FOLLY BEACH CMAN 1200   79     360/  6/  7 1014.0R
CAPERS NEARSHORE 1108   80      20/  8/ 10 1013.6R
FRIPP NEARSHORE  1100   80     350/  8/ 10 1013.2R


STATION/POSITION TIME  TEMP    WIND        PRES    WAVE   SWELL
                       AIR SEA DIR/SP/G            HT/PER HT/PER/DIR
                 (UTC) (F)     (DEG/KT/KT) (MB)    (FT/S) (FT/S/D)
5E ST. MARYS GA  1121      83                N/A     2/ 6
FRYING PAN BUOY  1150   82 84   30/  8/ 10 1013.8R   3/ 9   3/160/ 9
BUOY 41025       1150   84 85  180/ 14/ 16 1014.0R   4/ 9   2/ 90/ 9
CAPE LOOKOUT NC  1200   82     150/  7/  7 1013.1R
BUOY 41002       1150   83 81  170/ 19/ 23 1014.9F   7/ 8
BUOY 41010       1120   82 84  260/ 16/ 19 1014.1R
ST AUGUSTINE FL  1200   76 81  270/  7/ 10 1015.3R


$$


USA.gov is the U.S. government's official web portal to all federal, state and local government web resources and services.